160P/LINEAR (2019)

Japanese version
Home page
Updated on April 4, 2021

---------------------------------------------------------------------

* Profile

* Pictures

* Orbital Elements

Epoch 2019 Nov. 13.0 TT = JDT 2458800.5                                         
T 2019 Dec. 2.27562 TT                                  Rudenko                 
q   1.7873479            (2000.0)            P               Q                  
n   0.13455958     Peri.   12.64485     +0.96673187     +0.22554475             
a   3.7716058      Node   333.36890     -0.25181190     +0.75626457             
e   0.5261043      Incl.   15.61581     -0.04494732     +0.61416078             
P   7.32                                                                        
From 977 observations 1996 Sept. 8-2020 Oct. 25, mean residual 0".8.            
     Nongravitational parameters A1 = +0.24, A2 = -0.0014.                      

* Finding Charts

* Magnitudes Graph

        m1 = 0.5 + 5 log d + 50 log r(t - 15)

---------------------------------------------------------------------

The orbital elements are published on M.P.E.C. 2021-F20.
The charts are made with StellaNavigator Ver.10 (AstroArts).
The magnitudes graphs are made with Comet for Windows.

---------------------------------------------------------------------

Copyright(C) Seiichi Yoshida (comet@aerith.net). All rights reserved.